�N����,����,�~����,�C��,���x,�C��,����,���ϕ���,�ő�u�ԕ���,�ő厞����,���˗�,�I�_���x,�n�����x,�ő啗���N��,DTYPE
"20/08/10","00:10",0.0,26.3,81.9,1006.4,324.1,1.1,1.8,342.3,0.00,23.0,26.9,"00:02:32",1
"20/08/10","00:20",0.0,26.3,82.6,1006.4,337.9,1.1,2.2,341.3,0.00,23.1,26.8,"00:18:40",1
"20/08/10","00:30",0.0,26.2,83.0,1006.4,302.2,1.0,1.7,353.9,0.00,23.1,26.8,"00:26:48",1
"20/08/10","00:40",0.0,26.1,83.3,1006.7,273.1,0.7,1.4,316.1,0.00,23.1,26.7,"00:34:16",1
"20/08/10","00:50",0.0,26.1,83.5,1006.7,307.7,1.0,1.8,327.5,0.00,23.1,27.0,"00:45:36",1
"20/08/10","01:00",0.0,26.1,83.6,1006.7,283.3,0.7,1.4,315.4,0.00,23.1,26.5,"00:51:52",1
"20/08/10","01:10",0.0,26.1,83.7,1006.4,312.8,0.7,2.2,337.7,0.00,23.2,26.7,"01:06:36",1
"20/08/10","01:20",0.0,26.1,83.7,1006.4,37.5,0.3,1.7,312.6,0.00,23.2,26.7,"01:11:28",1
"20/08/10","01:30",0.0,26.1,83.8,1006.7,309.7,0.6,1.3,332.4,0.00,23.2,26.6,"01:21:04",1
"20/08/10","01:40",0.0,26.2,84.1,1006.7,321.9,0.8,1.8,328.4,0.00,23.3,26.6,"01:38:32",1
"20/08/10","01:50",0.0,26.1,84.4,1006.4,317.8,1.3,2.2,326.4,0.00,23.3,26.7,"01:44:40",1
"20/08/10","02:00",0.0,26.4,84.0,1006.9,338.1,1.3,2.5,348.0,0.00,23.5,26.4,"01:52:56",1
"20/08/10","02:10",0.0,26.5,83.6,1006.9,334.9,1.1,1.7,341.5,0.00,23.5,26.6,"02:00:24",1
"20/08/10","02:20",0.0,26.5,83.2,1007.4,328.1,1.5,2.6,343.9,0.00,23.5,26.5,"02:14:08",1
"20/08/10","02:30",0.0,26.6,82.6,1007.4,334.8,1.2,3.7,346.3,0.00,23.4,26.4,"02:20:24",1
"20/08/10","02:40",0.0,26.5,82.4,1007.4,298.5,0.8,1.7,239.3,0.00,23.3,26.4,"02:31:04",1
"20/08/10","02:50",0.0,26.4,82.3,1006.9,290.9,0.5,1.1,303.2,0.00,23.2,26.4,"02:44:08",1
"20/08/10","03:00",0.0,26.6,82.5,1007.1,320.9,0.7,1.7,337.8,0.00,23.4,26.5,"02:58:16",1
"20/08/10","03:10",0.0,26.6,82.6,1006.9,347.5,0.8,1.6,346.3,0.00,23.4,26.4,"03:00:02",1
"20/08/10","03:20",0.0,26.6,83.0,1007.1,338.4,1.3,2.2,336.7,0.00,23.5,26.5,"03:18:56",1
"20/08/10","03:30",0.0,26.6,83.3,1007.4,332.2,1.3,2.7,343.0,0.00,23.6,26.3,"03:29:28",1
"20/08/10","03:40",0.0,26.9,83.0,1006.9,342.2,1.6,2.8,3.8,0.00,23.8,26.3,"03:35:52",1
"20/08/10","03:50",0.0,26.9,82.8,1006.9,334.7,1.3,2.2,344.7,0.00,23.8,26.2,"03:44:00",1
"20/08/10","04:00",0.0,26.9,82.7,1007.1,297.7,1.1,2.5,330.4,0.00,23.7,26.3,"03:53:04",1
"20/08/10","04:10",0.0,26.8,82.7,1006.9,249.1,0.8,1.7,235.1,0.00,23.6,26.4,"04:06:48",1
"20/08/10","04:20",0.0,26.9,82.8,1006.9,245.9,0.6,1.3,202.6,0.00,23.8,26.4,"04:17:04",1
"20/08/10","04:30",0.0,26.7,82.8,1007.1,293.4,0.5,1.0,322.9,0.00,23.6,26.4,"04:26:56",1
"20/08/10","04:40",0.0,26.6,83.1,1006.9,256.7,0.7,1.4,227.5,0.00,23.5,26.3,"04:33:28",1
"20/08/10","04:50",0.0,26.4,83.3,1006.7,297.1,0.5,1.1,336.5,0.00,23.4,26.4,"04:49:36",1
"20/08/10","05:00",0.0,26.4,83.9,1006.9,341.2,1.0,1.4,338.8,0.00,23.5,26.2,"04:54:40",1
"20/08/10","05:10",0.0,26.1,84.5,1007.1,333.7,0.7,1.2,346.9,0.00,23.3,26.3,"05:04:40",1
"20/08/10","05:20",0.0,26.0,85.0,1006.9,301.3,0.6,0.9,332.3,0.00,23.3,26.2,"05:14:40",1
"20/08/10","05:30",0.0,26.1,85.6,1007.6,321.5,0.8,1.3,343.4,0.00,23.5,26.2,"05:27:20",1
"20/08/10","05:40",0.0,26.2,85.9,1007.4,330.7,0.8,1.7,347.8,0.00,23.7,26.3,"05:30:48",1
"20/08/10","05:50",0.0,26.3,86.2,1007.6,336.3,0.8,1.4,355.7,0.00,23.8,26.2,"05:40:56",1
"20/08/10","06:00",0.0,26.2,86.5,1007.6,330.0,0.8,1.3,316.2,0.00,23.8,26.3,"05:52:40",1
"20/08/10","06:10",0.0,26.3,86.8,1007.8,305.9,0.7,1.1,334.1,0.00,24.0,26.3,"06:02:48",1
"20/08/10","06:20",0.0,26.5,86.9,1007.8,298.9,0.7,1.3,333.7,0.01,24.2,26.3,"06:10:16",1
"20/08/10","06:30",0.0,26.7,86.9,1007.8,279.9,0.6,1.0,304.7,0.02,24.4,26.2,"06:29:44",1
"20/08/10","06:40",0.0,27.0,86.9,1007.6,287.4,0.7,1.1,317.3,0.03,24.7,26.3,"06:32:48",1
"20/08/10","06:50",0.0,27.2,86.7,1007.6,301.7,1.0,1.8,346.8,0.05,24.8,26.3,"06:45:04",1
"20/08/10","07:00",0.0,27.7,86.3,1007.8,314.9,0.5,0.8,331.8,0.06,25.2,26.3,"06:51:28",1
"20/08/10","07:10",0.0,27.6,85.4,1007.6,324.4,0.7,1.3,342.3,0.05,25.0,26.2,"07:08:08",1
"20/08/10","07:20",0.0,27.9,84.8,1007.6,287.9,0.3,0.9,339.0,0.05,25.1,26.5,"07:10:08",1
"20/08/10","07:30",0.0,28.1,83.8,1007.4,308.0,0.6,1.2,342.3,0.06,25.1,26.7,"07:26:32",1
"20/08/10","07:40",0.0,28.4,82.9,1007.4,295.1,0.3,0.6,325.7,0.07,25.3,26.5,"07:31:52",1
"20/08/10","07:50",0.0,28.5,81.3,1007.4,286.7,0.5,1.2,314.3,0.11,25.0,26.6,"07:44:56",1
"20/08/10","08:00",0.0,29.0,79.3,1007.4,343.6,0.6,1.7,333.8,0.14,25.1,26.7,"07:54:24",1
"20/08/10","08:10",0.0,29.3,76.9,1007.6,356.6,0.6,1.4,336.2,0.12,24.9,26.7,"08:08:32",1
"20/08/10","08:20",0.0,29.6,75.6,1007.8,271.7,0.3,0.9,271.0,0.13,24.9,26.9,"08:10:40",1
"20/08/10","08:30",0.0,29.9,73.8,1008.3,318.1,0.5,1.0,348.7,0.14,24.8,26.9,"08:27:12",1
"20/08/10","08:40",0.0,30.2,72.4,1008.1,323.9,0.5,1.3,353.0,0.12,24.7,26.9,"08:33:12",1
"20/08/10","08:50",0.0,30.4,71.6,1008.6,323.7,0.3,1.1,324.0,0.15,24.7,26.9,"08:40:16",1
"20/08/10","09:00",0.0,30.7,71.4,1008.8,258.5,0.3,1.0,350.0,0.16,25.0,27.1,"08:57:12",1
"20/08/10","09:10",0.0,30.6,70.6,1008.8,160.8,0.6,1.6,208.6,0.18,24.7,27.2,"09:03:12",1
"20/08/10","09:20",0.0,31.4,69.6,1009.5,230.5,0.6,2.0,352.9,0.36,25.2,27.4,"09:19:04",1
"20/08/10","09:30",0.0,32.1,66.6,1009.5,286.5,1.0,2.0,353.2,0.36,25.1,27.7,"09:24:48",1
"20/08/10","09:40",0.0,32.6,63.3,1010.2,153.2,0.7,1.9,114.1,0.40,24.8,27.5,"09:39:44",1
"20/08/10","09:50",0.0,32.8,62.1,1010.0,137.0,0.8,2.4,141.4,0.28,24.6,27.9,"09:49:52",1
"20/08/10","10:00",0.0,32.5,61.9,1010.2,166.9,0.6,2.2,125.5,0.19,24.3,28.1,"09:50:24",1
"20/08/10","10:10",0.0,32.2,62.2,1010.0,134.5,0.6,1.9,213.4,0.17,24.1,28.1,"10:08:24",1
"20/08/10","10:20",0.0,32.2,62.5,1010.0,159.1,1.0,2.0,144.1,0.21,24.2,28.1,"10:19:28",1
"20/08/10","10:30",0.0,32.7,63.1,1009.7,182.3,0.8,2.2,200.1,0.30,24.8,28.2,"10:21:36",1
"20/08/10","10:40",0.0,33.7,60.7,1010.4,162.4,1.0,2.6,203.0,0.47,25.1,28.4,"10:36:40",1
"20/08/10","10:50",0.0,34.5,56.7,1010.2,97.7,1.3,2.7,31.4,0.55,24.7,28.7,"10:47:36",1
"20/08/10","11:00",0.0,34.9,57.4,1010.2,138.2,1.0,4.0,211.3,0.48,25.3,28.7,"10:57:28",1
"20/08/10","11:10",0.0,35.0,55.6,1010.7,146.8,1.2,2.4,114.9,0.46,24.8,28.9,"11:04:48",1
"20/08/10","11:20",0.0,35.3,54.9,1010.0,285.3,1.3,4.9,198.0,0.53,24.9,29.1,"11:19:28",1
"20/08/10","11:30",0.0,35.3,54.7,1010.0,177.9,2.6,6.7,205.2,0.53,24.8,29.5,"11:23:36",1
"20/08/10","11:40",0.0,34.7,56.5,1010.0,207.6,1.8,4.0,224.6,0.34,24.8,29.3,"11:33:04",1
"20/08/10","11:50",0.0,35.3,56.9,1009.7,167.7,1.3,3.5,218.3,0.33,25.5,29.5,"11:40:56",1
"20/08/10","12:00",0.0,35.1,55.6,1009.5,167.1,1.0,2.0,226.1,0.36,24.9,29.5,"11:53:20",1
"20/08/10","12:10",0.0,35.6,56.3,1009.5,188.2,1.6,3.5,215.3,0.42,25.6,29.7,"12:02:24",1
"20/08/10","12:20",0.0,35.5,55.9,1009.5,229.6,1.6,4.4,192.7,0.40,25.4,29.8,"12:19:28",1
"20/08/10","12:30",0.0,36.3,54.3,1009.5,163.5,2.0,4.4,206.9,0.57,25.6,29.9,"12:21:36",1
"20/08/10","12:40",0.0,36.0,52.2,1009.5,177.6,2.5,5.9,219.4,0.52,24.7,29.9,"12:39:52",1
"20/08/10","12:50",0.0,36.7,50.8,1010.0,190.1,2.6,5.4,227.7,0.62,24.9,30.4,"12:49:52",1
"20/08/10","13:00",0.0,36.9,50.4,1009.5,203.8,1.8,5.5,226.6,0.60,24.9,30.4,"12:54:00",1
"20/08/10","13:10",0.0,37.1,49.5,1009.3,195.6,2.5,5.8,200.1,0.63,24.8,30.6,"13:05:12",1
"20/08/10","13:20",0.0,36.5,51.9,1009.5,188.9,2.0,4.3,178.8,0.47,25.1,30.6,"13:14:40",1
"20/08/10","13:30",0.0,36.9,50.3,1008.8,172.3,2.0,5.4,223.1,0.54,24.9,30.7,"13:23:04",1
"20/08/10","13:40",0.0,36.8,49.3,1009.0,181.8,1.7,4.0,219.9,0.47,24.5,30.7,"13:33:28",1
"20/08/10","13:50",0.0,37.0,47.8,1009.0,199.9,1.6,4.2,209.1,0.56,24.1,30.8,"13:41:04",1
"20/08/10","14:00",0.0,36.7,49.2,1009.0,227.9,2.0,5.6,215.7,0.52,24.3,30.7,"13:55:20",1
"20/08/10","14:10",0.0,37.1,49.2,1009.3,221.2,2.0,4.8,204.4,0.52,24.7,30.7,"14:05:52",1
"20/08/10","14:20",0.0,36.7,49.2,1009.0,242.5,2.0,4.2,224.4,0.45,24.3,30.7,"14:16:40",1
"20/08/10","14:30",0.0,36.7,48.1,1008.8,235.8,1.7,5.2,206.5,0.52,24.0,30.8,"14:21:12",1
"20/08/10","14:40",0.0,36.7,47.7,1009.0,209.4,2.5,6.4,213.7,0.47,23.8,30.9,"14:35:12",1
"20/08/10","14:50",0.0,36.6,49.9,1008.3,190.5,3.1,6.8,206.7,0.46,24.5,30.9,"14:42:32",1
"20/08/10","15:00",0.0,37.3,48.6,1008.6,219.2,1.7,6.4,217.3,0.44,24.7,30.8,"14:52:08",1
"20/08/10","15:10",0.0,37.2,48.1,1008.6,194.2,1.7,4.3,216.9,0.41,24.4,30.9,"15:05:44",1
"20/08/10","15:20",0.0,36.7,48.1,1008.6,244.2,1.7,6.6,215.9,0.39,24.0,30.8,"15:19:20",1
"20/08/10","15:30",0.0,35.9,48.3,1008.3,240.3,2.3,6.4,229.8,0.37,23.3,31.0,"15:29:14",1
"20/08/10","15:40",0.0,36.0,49.4,1008.1,242.8,1.8,5.9,225.2,0.35,23.8,31.0,"15:30:24",1
"20/08/10","15:50",0.0,35.8,49.5,1007.8,245.2,2.0,4.3,223.2,0.33,23.6,30.8,"15:40:48",1
"20/08/10","16:00",0.0,36.1,49.4,1007.8,238.6,1.3,5.5,214.1,0.32,23.9,30.9,"15:52:32",1
"20/08/10","16:10",0.0,36.0,48.7,1007.8,246.8,1.8,4.5,219.3,0.34,23.5,31.1,"16:02:24",1
"20/08/10","16:20",0.0,35.7,49.9,1007.8,238.1,1.8,4.2,211.3,0.29,23.7,30.7,"16:10:32",1
"20/08/10","16:30",0.0,35.6,50.1,1008.1,240.6,1.7,5.8,227.3,0.24,23.6,30.8,"16:24:48",1
"20/08/10","16:40",0.0,34.9,50.8,1007.6,236.6,2.6,7.9,218.1,0.21,23.2,30.7,"16:34:40",1
"20/08/10","16:50",0.0,35.2,52.1,1007.6,231.3,1.7,5.4,227.5,0.19,23.9,30.7,"16:49:44",1
"20/08/10","17:00",0.0,34.4,54.2,1007.1,243.9,2.5,5.4,225.4,0.15,23.8,30.6,"16:55:28",1
"20/08/10","17:10",0.0,34.1,56.1,1007.4,245.1,2.0,5.1,232.2,0.12,24.1,30.5,"17:02:56",1
"20/08/10","17:20",0.0,34.0,56.0,1007.6,246.0,1.8,4.9,345.0,0.10,24.0,30.2,"17:12:40",1
"20/08/10","17:30",0.0,33.7,57.0,1006.9,250.9,1.6,4.1,231.5,0.07,24.0,30.4,"17:22:40",1
"20/08/10","17:40",0.0,33.4,57.9,1006.7,246.3,1.5,2.8,312.7,0.04,24.0,30.4,"17:30:16",1
"20/08/10","17:50",0.0,33.2,58.4,1006.7,257.8,1.3,3.2,301.0,0.01,24.0,30.0,"17:47:20",1
"20/08/10","18:00",0.0,33.0,58.9,1006.9,229.4,1.6,4.2,198.9,0.00,23.9,30.0,"17:56:24",1
"20/08/10","18:10",0.0,32.6,59.4,1006.2,253.8,1.3,4.0,223.8,0.00,23.7,29.8,"18:08:16",1
"20/08/10","18:20",0.0,32.4,60.1,1006.0,247.3,1.3,3.4,224.1,0.00,23.7,29.7,"18:11:12",1
"20/08/10","18:30",0.0,32.2,61.1,1006.2,277.3,1.0,2.1,348.8,0.00,23.8,29.7,"18:25:04",1
"20/08/10","18:40",0.0,31.9,61.9,1006.2,253.3,1.0,2.9,315.4,0.00,23.7,29.5,"18:33:52",1
"20/08/10","18:50",0.0,31.7,62.9,1005.7,272.0,1.2,3.9,235.9,0.00,23.8,29.5,"18:46:16",1
"20/08/10","19:00",0.0,31.5,63.8,1005.7,265.3,1.1,2.6,340.0,0.00,23.9,29.4,"18:56:24",1
"20/08/10","19:10",0.0,31.4,64.3,1006.0,252.8,1.1,3.2,237.2,0.00,23.9,29.3,"19:04:16",1
"20/08/10","19:20",0.0,31.3,64.9,1006.0,250.6,1.3,5.1,221.6,0.00,23.9,29.1,"19:19:52",1
"20/08/10","19:30",0.0,31.3,65.0,1005.7,261.0,1.5,3.5,229.2,0.00,24.0,29.2,"19:28:32",1
"20/08/10","19:40",0.0,31.3,65.0,1006.0,254.1,1.7,3.7,250.1,0.00,24.0,29.1,"19:32:56",1
"20/08/10","19:50",0.0,31.3,64.7,1006.2,244.3,1.6,3.7,226.8,0.00,23.9,28.8,"19:42:56",1
"20/08/10","20:00",0.0,31.3,64.7,1006.0,254.5,1.6,3.2,245.1,0.00,23.9,28.9,"19:50:16",1
"20/08/10","20:10",0.0,31.2,64.7,1006.2,241.1,1.3,3.2,236.2,0.00,23.8,28.8,"20:08:08",1
"20/08/10","20:20",0.0,31.2,64.9,1006.0,244.5,1.5,4.3,318.8,0.00,23.9,28.7,"20:14:24",1
"20/08/10","20:30",0.0,31.1,65.3,1006.2,254.0,1.1,3.9,226.5,0.00,23.9,28.7,"20:25:20",1
"20/08/10","20:40",0.0,31.0,65.8,1006.4,255.4,1.5,2.9,258.6,0.00,23.9,28.6,"20:38:00",1
"20/08/10","20:50",0.0,30.9,66.5,1006.7,250.9,1.8,5.7,239.4,0.00,24.0,28.5,"20:41:44",1
"20/08/10","21:00",0.0,30.8,67.3,1006.2,246.4,1.8,6.5,220.7,0.00,24.1,28.3,"20:57:36",1
"20/08/10","21:10",0.0,30.7,67.8,1006.7,247.8,1.7,5.2,229.2,0.00,24.1,28.5,"21:00:40",1
"20/08/10","21:20",0.0,30.7,67.8,1006.7,226.8,1.6,4.3,233.3,0.00,24.1,28.3,"21:14:16",1
"20/08/10","21:30",0.0,30.7,67.6,1006.7,216.5,1.2,4.7,218.5,0.00,24.1,28.4,"21:23:52",1
"20/08/10","21:40",0.0,30.7,67.5,1006.7,208.1,1.8,3.4,196.2,0.00,24.0,28.3,"21:39:12",1
"20/08/10","21:50",0.0,30.7,67.3,1006.9,199.6,1.6,4.5,213.4,0.00,24.0,28.2,"21:40:40",1
"20/08/10","22:00",0.0,30.4,68.0,1006.7,145.4,0.7,2.2,194.2,0.00,23.9,28.3,"21:59:12",1
"20/08/10","22:10",0.0,30.4,68.4,1006.7,201.7,1.1,2.7,190.1,0.00,24.0,28.2,"22:04:16",1
"20/08/10","22:20",0.0,30.2,68.8,1006.4,141.2,0.7,3.1,218.7,0.00,23.9,28.0,"22:19:52",1
"20/08/10","22:30",0.0,30.1,69.3,1006.7,281.1,0.8,2.4,241.1,0.00,23.9,28.0,"22:21:12",1
"20/08/10","22:40",0.0,29.7,70.3,1006.7,269.5,0.3,1.0,229.7,0.00,23.8,27.9,"22:38:16",1
"20/08/10","22:50",0.0,29.3,72.0,1006.9,275.1,0.6,1.7,348.0,0.00,23.8,27.8,"22:48:48",1
"20/08/10","23:00",0.0,29.3,73.4,1006.7,354.8,0.7,1.9,339.4,0.00,24.1,27.7,"22:52:32",1
"20/08/10","23:10",0.0,28.8,74.6,1006.9,20.0,0.7,2.0,336.0,0.00,23.9,28.0,"23:04:48",1
"20/08/10","23:20",0.0,28.9,75.0,1006.7,330.1,0.8,2.8,11.7,0.00,24.1,27.7,"23:11:44",1
"20/08/10","23:30",0.0,29.0,74.9,1006.9,319.0,1.0,2.0,342.1,0.00,24.1,27.5,"23:20:32",1
"20/08/10","23:40",0.0,28.8,75.0,1006.9,324.8,1.1,2.5,336.6,0.00,24.0,27.7,"23:34:56",1
"20/08/10","23:50",0.0,28.7,75.2,1007.1,322.7,0.3,1.0,287.8,0.00,23.9,27.8,"23:42:48",1
"20/08/10","24:00",0.0,28.4,75.8,1007.1,314.1,0.6,1.1,333.6,0.00,23.8,27.7,"23:50:16",1
